CZ-6A DEB, 61147

Orbit data source: Space-Track

CZ-6A DEB, 61147 is space debris in LEO originally from a launch on Tue, 06 Aug 2024 UTC launched from the Taiyaun Space Center, China (TSC). Debris objects in space refer to the collection of defunct objects orbiting the Earth. Examples of debris include non-operational satellites, rocket bodies, and fragments generated from explosions, collisions, or faulty payload assembly.

Loading next visibility...
Identifier
61147, 2024-140QR
Orbit
LEO
Country
Flag of CNCN / PRC
Related business
Manufacturer
SAST
Mission
Spacecraft
Bus & Motor
Unknown
Mass
Unknown
Launch date (UTC)
2024-08-06 (2 years ago)
Launch vehicle
Unknown
Launch site
Taiyaun Space Center, China (TSC)
Object type
Payload
Rocket body
Debris
Shape & HBR
Unknown shape, 0.1 m
Radar Cross Section
Medium (>0.1 m² and <1 m²)

Expand to show TLE details & history
Last TLE update: 16 hours ago

TLE from 16 hours ago
0 CZ-6A DEB
1 61147U 24140QR  26171.23785406  .00000066  00000-0  28579-4 0  9999
2 61147  88.9660 272.7443 0085061 216.4936 143.0434 14.10460978 94044
Epoch: 2026-06-20T05:42Z
TLE epoch observation values (Epoch: 2026-06-20T05:42:30.590Z)
Latitude
-0.00006°
Longitude
-81.33851°
Altitude
910.215 km
Speed
7.372 km/s
True Right ascension
18h 10m 58s
True Declination
0° 00' 00"
Sunlit
Object was in full shadow at epoch
Visualization orbit readout
Latitude
Unknown
Longitude
Unknown
Altitude
Unknown
Speed
Unknown
Apparent Right ascension
Unknown
Apparent Declination
Unknown
Sunlit
N/A
Visualization observer readout
Local Sidereal Time
08:42:36
Azimuth
Unknown
Elevation
Unknown
Doppler factor
Unknown
Orbital elements
Apogee altitude
916.283 km
Perigee altitude
793.236 km
Semi-major axis
7,232.896 km
Eccentricity
0.00851
Inclination
88.966°
RAAN
272.7443°
Arg. of periapsis
216.4936°
True anomaly
143.62447°
Mean anomaly
143.0434°
Eccentric anomaly
143.33443°
Mean motion
3.52838 °/min
Orbital period
102.03 mins
BSTAR
0.000028579
Loading maneuver chart data...
Computing Atmospheric mass density...
Loading historical data...
Loading historical data...
Loading historical data...
Loading historical data...
Loading historical data...
Loading historical data...
Loading historical data...

Documentation

Showing up to 5 results
|